VA3XLC Weather Reports


time (UTC)temp
F
wind
direction
speed
knots
gust
knots
rain 1hr
in
rain 24hr
in
rain mn
in
humidity
%
barometer
mb
20260906095458 56 0 0.0 0.0 0.00 0.00 0.00 96 985.1
20260906094958 56 0 0.0 0.0 0.00 0.00 0.00 96 985.1
20260906094457 56 0 0.0 0.0 0.00 0.00 0.00 96 985.2
20260906093436 56 0 0.0 0.0 0.00 0.00 0.00 96 985.1
20260906092936 56 0 0.0 0.0 0.00 0.00 0.00 96 984.9
20260906092436 56 0 0.0 0.0 0.00 0.00 0.00 96 984.9
20260906091935 56 0 0.0 0.0 0.00 0.00 0.00 96 984.9
20260906091435 56 0 0.0 0.0 0.00 0.00 0.00 96 984.9
20260906090935 56 0 0.0 0.0 0.00 0.00 0.00 96 984.8
20260906090435 56 0 0.0 0.0 0.00 0.00 0.00 96 984.8
20260906085935 57 0 0.0 0.0 0.00 0.00 0.00 96 984.8
20260906085434 57 0 0.0 0.0 0.00 0.00 0.00 96 984.8
20260906084934 57 0 0.0 0.0 0.00 0.00 0.00 96 984.7
20260906084434 57 0 0.0 0.0 0.00 0.00 0.00 96 984.6
20260906083934 58 0 0.0 0.0 0.00 0.00 0.00 96 984.5
20260906083434 58 0 0.0 0.0 0.00 0.00 0.00 97 984.5
20260906082934 58 0 0.0 0.0 0.00 0.00 0.00 97 984.4
20260906082433 58 0 0.0 0.0 0.00 0.00 0.00 96 984.4
20260906081933 59 0 0.0 0.0 0.00 0.00 0.00 96 984.3
20260906081433 59 0 0.0 0.0 0.00 0.00 0.00 96 984.3
20260906080933 59 48 0.0 0.9 0.00 0.00 0.00 96 984.3
20260906080432 59 0 0.0 0.0 0.00 0.00 0.00 96 984.2
20260906075932 59 0 0.0 0.0 0.00 0.00 0.00 96 984.1
20260906075432 59 177 0.9 1.7 0.00 0.00 0.00 96 984.2
20260906074932 59 171 0.9 1.7 0.00 0.00 0.00 96 984.2
20260906074431 59 96 0.9 1.7 0.00 0.00 0.00 96 984.1
20260906073931 59 185 0.9 1.7 0.00 0.00 0.00 96 984.2
20260906073431 59 0 0.0 0.0 0.00 0.00 0.00 96 984.2
20260906072931 59 0 0.0 0.0 0.00 0.00 0.00 96 984.1
20260906072430 60 53 0.9 1.7 0.00 0.00 0.00 96 984.1
20260906071929 60 36 0.9 1.7 0.00 0.00 0.00 96 984.1
20260906071429 60 148 0.9 0.9 0.00 0.00 0.00 96 984.0
20260906070929 60 32 0.9 1.7 0.00 0.00 0.00 96 984.0
20260906070429 59 53 0.9 1.7 0.00 0.00 0.00 96 984.1
20260906065929 59 149 1.7 2.6 0.00 0.00 0.00 96 984.1
20260906064346 60 0 0.0 0.0 0.00 0.00 0.00 96 984.0
20260906063325 60 0 0.0 0.0 0.00 0.00 0.00 96 984.0
20260906062824 60 142 0.9 1.7 0.00 0.00 0.00 96 984.0
20260906062324 60 51 1.7 3.5 0.00 0.00 0.00 96 984.0
20260906061824 60 0 0.0 0.0 0.00 0.00 0.00 96 984.0
20260906060802 60 339 0.9 0.9 0.00 0.00 0.00 96 984.0
20260906060302 60 179 0.0 0.9 0.00 0.00 0.00 95 984.0
20260906055801 60 66 0.9 2.6 0.00 0.00 0.00 95 984.0
20260906054740 60 94 0.9 0.9 0.00 0.00 0.00 95 984.1
20260906054240 60 133 0.9 0.9 0.00 0.00 0.00 95 984.0
20260906053218 60 0 0.0 0.0 0.00 0.00 0.00 95 984.1
20260906052718 60 56 0.9 1.7 0.00 0.00 0.00 95 984.1
20260906052218 60 122 0.9 0.9 0.00 0.00 0.00 96 984.2
20260906051718 60 0 0.0 0.0 0.00 0.00 0.00 95 984.1
20260906051217 61 0 0.0 0.0 0.00 0.00 0.00 95 984.1
20260906050717 61 0 0.0 0.0 0.00 0.00 0.00 95 984.0
20260906050217 61 91 0.9 1.7 0.00 0.00 0.00 95 984.0
20260906045717 61 87 0.9 2.6 0.00 0.00 0.00 95 984.0
20260906045216 61 0 0.0 0.0 0.00 0.00 0.00 95 984.0
20260906044716 61 0 0.0 0.0 0.00 0.00 0.00 94 984.0
20260906044216 61 0 0.0 0.0 0.00 0.00 0.00 94 984.0
20260906043716 61 63 0.9 1.7 0.00 0.00 0.00 93 984.0
20260906043216 62 78 0.9 1.7 0.00 0.00 0.00 93 983.9
20260906042716 62 54 0.9 1.7 0.00 0.00 0.00 93 983.8
20260906042215 62 170 1.7 2.6 0.00 0.00 0.00 92 983.8
20260906041715 62 95 0.9 1.7 0.00 0.00 0.00 92 983.8
20260906041215 62 98 0.9 2.6 0.00 0.00 0.00 91 983.7
20260906040714 62 73 2.6 3.5 0.00 0.00 0.00 91 983.7
20260906040214 63 82 2.6 4.3 0.00 0.00 0.00 91 983.7
20260906035714 63 77 2.6 5.2 0.00 0.00 0.00 90 983.6
20260906035214 63 117 1.7 3.5 0.00 0.00 0.00 90 983.6
20260906034714 63 80 1.7 3.5 0.00 0.00 0.00 90 983.5
20260906033652 63 79 1.7 3.5 0.00 0.00 0.00 90 983.4
20260906033151 63 87 2.6 3.5 0.00 0.00 0.00 90 983.4
20260906032651 63 103 1.7 4.3 0.00 0.00 0.00 90 983.4
20260906032151 63 135 0.9 2.6 0.00 0.00 0.00 89 983.4
20260906031129 63 77 1.7 2.6 0.00 0.00 0.00 89 983.5
20260906030629 63 96 0.9 2.6 0.00 0.00 0.00 89 983.5
20260906030129 63 41 0.9 2.6 0.00 0.00 0.00 88 983.5
20260906025629 63 44 1.7 3.5 0.00 0.00 0.00 89 983.5
20260906025128 63 340 1.7 3.5 0.00 0.00 0.00 89 983.4
20260906024628 62 35 0.9 2.6 0.00 0.00 0.00 90 983.4
20260906024128 62 43 0.9 3.5 0.00 0.00 0.00 90 983.3
20260906023628 62 347 1.7 3.5 0.00 0.00 0.00 91 983.3
20260906022606 62 327 0.9 1.7 0.00 0.00 0.00 93 983.3
20260906022106 62 0 0.0 0.0 0.00 0.00 0.00 93 983.2
20260906021605 62 349 0.9 1.7 0.00 0.00 0.00 93 983.1
20260906021105 62 0 0.0 0.0 0.00 0.00 0.00 93 983.0
20260906020044 63 338 1.7 2.6 0.00 0.00 0.00 92 983.0
20260906015543 63 11 0.0 0.9 0.00 0.00 0.00 92 982.9
20260906015042 63 3 0.9 1.7 0.00 0.00 0.00 92 982.9
20260906014542 63 0 0.0 0.0 0.00 0.00 0.00 91 982.9
20260906014042 63 305 0.9 1.7 0.00 0.00 0.00 91 982.7
20260906013542 63 348 1.7 2.6 0.00 0.00 0.00 90 982.7
20260906013041 63 342 0.9 2.6 0.00 0.00 0.00 89 982.6
20260906012541 64 318 0.9 1.7 0.00 0.00 0.00 89 982.6
20260906012041 64 347 0.9 1.7 0.00 0.00 0.00 88 982.6
20260906011540 64 0 0.0 0.0 0.00 0.00 0.00 87 982.6
20260906011040 64 7 0.9 0.9 0.00 0.00 0.00 86 982.5
20260906010540 64 28 0.9 1.7 0.00 0.00 0.00 85 982.5
20260906010039 65 356 1.7 2.6 0.00 0.00 0.00 83 982.4
20260906005538 65 330 1.7 2.6 0.00 0.00 0.00 83 982.4
20260906005038 65 346 2.6 3.5 0.00 0.00 0.00 81 982.5
20260906003455 66 350 1.7 2.6 0.00 0.00 0.00 78 982.5
20260906002955 66 1 1.7 4.3 0.00 0.00 0.00 77 982.4
20260906002455 67 8 1.7 3.5 0.00 0.00 0.00 75 982.4
20260906001955 67 33 0.9 2.6 0.00 0.00 0.00 75 982.4
20260906001454 67 348 0.9 2.6 0.00 0.00 0.00 74 982.3
20260906000954 67 336 1.7 3.5 0.00 0.00 0.00 72 982.2
20260906000455 68 322 0.9 2.6 0.00 0.00 0.00 72 982.2
20260905235431 69 345 0.9 1.7 0.00 0.00 0.00 69 982.2
20260905234931 69 338 2.6 4.3 0.00 0.00 0.00 68 982.2
20260905234430 69 347 3.5 6.1 0.00 0.00 0.00 67 982.2
20260905232847 71 339 1.7 3.5 0.00 0.00 0.00 64 982.2
20260905232346 71 17 1.7 4.3 0.00 0.00 0.00 63 982.3
20260905231845 72 344 1.7 3.5 0.00 0.00 0.00 62 982.3
20260905231345 72 332 4.3 7.0 0.00 0.00 0.00 61 982.2
20260905230844 73 342 4.3 7.8 0.00 0.00 0.00 61 982.0
20260905230344 73 352 4.3 7.0 0.00 0.00 0.00 61 982.1
20260905225844 74 340 5.2 7.8 0.00 0.00 0.00 60 982.0
20260905225343 75 341 1.7 4.3 0.00 0.00 0.00 60 981.9
20260905224321 76 20 0.9 2.6 0.00 0.00 0.00 57 981.9
20260905223821 76 37 1.7 4.3 0.00 0.00 0.00 55 981.9
20260905223320 76 71 1.7 5.2 0.00 0.00 0.00 54 981.9
20260905222820 76 50 2.6 4.3 0.00 0.00 0.00 54 981.9
20260905222320 76 358 1.7 4.3 0.00 0.00 0.00 52 981.9
20260905221820 77 0 1.7 2.6 0.00 0.00 0.00 53 981.8
20260905221319 77 49 2.6 5.2 0.00 0.00 0.00 52 981.8
20260905220819 77 98 2.6 5.2 0.00 0.00 0.00 53 981.8
20260905220319 77 27 2.6 3.5 0.00 0.00 0.00 52 981.8
20260905215819 77 53 1.7 3.5 0.00 0.00 0.00 53 981.8
20260905215319 76 58 1.7 3.5 0.00 0.00 0.00 54 981.9
20260905214818 75 29 0.9 1.7 0.00 0.00 0.00 57 981.9
20260905214317 76 102 1.7 3.5 0.00 0.00 0.00 57 981.9
20260905213817 76 320 1.7 3.5 0.00 0.00 0.00 55 981.8
20260905213316 77 24 2.6 4.3 0.00 0.00 0.00 52 981.8
20260905212816 77 357 2.6 5.2 0.00 0.00 0.00 50 981.8
20260905212316 76 347 2.6 3.5 0.00 0.00 0.00 54 981.7
20260905211816 76 321 1.7 4.3 0.00 0.00 0.00 55 981.7
20260905211315 76 331 2.6 5.2 0.00 0.00 0.00 53 981.7
20260905210815 76 6 1.7 3.5 0.00 0.00 0.00 54 981.6
20260905210315 77 5 0.9 2.6 0.00 0.00 0.00 53 981.6
20260905205815 77 353 1.7 2.6 0.00 0.00 0.00 52 981.6
20260905204753 77 14 2.6 3.5 0.00 0.00 0.00 52 981.6
20260905203732 77 54 2.6 6.1 0.00 0.00 0.00 51 981.7
20260905203232 77 62 4.3 7.8 0.00 0.00 0.00 51 981.7
20260905202732 77 85 1.7 3.5 0.00 0.00 0.00 51 981.7
20260905202231 77 45 3.5 6.1 0.00 0.00 0.00 51 981.7
20260905201730 77 15 3.5 4.3 0.00 0.00 0.00 49 981.8
20260905201230 77 31 2.6 4.3 0.00 0.00 0.00 51 981.7
20260905200208 77 77 1.7 2.6 0.00 0.00 0.00 52 981.8
20260905195708 77 23 2.6 4.3 0.00 0.00 0.00 50 981.9
20260905195207 76 357 2.6 4.3 0.00 0.00 0.00 51 981.9
20260905194707 76 29 2.6 5.2 0.00 0.00 0.00 53 981.9
20260905194207 76 62 3.5 5.2 0.00 0.00 0.00 50 981.8
20260905193707 76 74 3.5 7.0 0.00 0.00 0.00 52 981.8
20260905193206 76 32 3.5 4.3 0.00 0.00 0.00 53 981.9
20260905192145 76 160 1.7 4.3 0.00 0.00 0.00 56 982.1
20260905191644 77 39 2.6 7.8 0.00 0.00 0.00 52 982.0
20260905191144 77 92 3.5 6.1 0.00 0.00 0.00 52 982.0
20260905190644 76 8 1.7 2.6 0.00 0.00 0.00 54 982.1
20260905185101 75 49 2.6 4.3 0.00 0.00 0.00 53 982.2
20260905182956 76 109 2.6 4.3 0.00 0.00 0.00 54 982.4
20260905182455 76 333 5.2 6.1 0.00 0.00 0.00 54 982.4
20260905181955 76 119 2.6 3.5 0.00 0.00 0.00 55 982.4
20260905181455 76 73 1.7 3.5 0.00 0.00 0.00 55 982.5
20260905180955 76 91 0.9 1.7 0.00 0.00 0.00 56 982.5
20260905180455 76 82 3.5 7.0 0.00 0.00 0.00 57 982.4
20260905175954 75 312 2.6 4.3 0.00 0.00 0.00 55 982.5
20260905175453 75 336 4.3 6.1 0.00 0.00 0.00 57 982.5
20260905174953 75 116 1.7 2.6 0.00 0.00 0.00 58 982.5
20260905174453 75 133 3.5 6.1 0.00 0.00 0.00 59 982.5
20260905173952 74 99 2.6 6.1 0.00 0.00 0.00 57 982.6
20260905172931 75 127 4.3 7.0 0.00 0.00 0.00 59 982.7
20260905172431 75 69 1.7 2.6 0.00 0.00 0.00 59 982.7
20260905171409 75 147 1.7 4.3 0.00 0.00 0.00 58 982.6
20260905170909 74 337 2.6 3.5 0.00 0.00 0.00 60 982.7
20260905170409 74 239 1.7 2.6 0.00 0.00 0.00 61 982.7
20260905165909 74 16 3.5 4.3 0.00 0.00 0.00 61 982.7
20260905165409 74 56 3.5 5.2 0.00 0.00 0.00 62 982.7
20260905164908 74 233 1.7 2.6 0.00 0.00 0.00 62 982.7
20260905163846 75 23 2.6 3.5 0.00 0.00 0.00 61 982.8
20260905163345 75 120 3.5 6.1 0.00 0.00 0.00 60 982.9
20260905162845 74 96 2.6 3.5 0.00 0.00 0.00 60 982.9
20260905162345 74 54 1.7 4.3 0.00 0.00 0.00 61 982.9
20260905161323 73 170 1.7 2.6 0.00 0.00 0.00 63 982.9
20260905160822 73 147 2.6 4.3 0.00 0.00 0.00 62 982.9
20260905160322 74 96 2.6 4.3 0.00 0.00 0.00 59 982.9
20260905155301 73 69 2.6 4.3 0.00 0.00 0.00 60 983.0
20260905154800 73 37 4.3 6.1 0.00 0.00 0.00 60 983.0
20260905154300 72 61 4.3 5.2 0.00 0.00 0.00 63 983.1
20260905153759 72 152 1.7 3.5 0.00 0.00 0.00 65 983.1
20260905153259 72 88 3.5 7.0 0.00 0.00 0.00 66 983.0
20260905152759 72 116 1.7 4.3 0.00 0.00 0.00 65 983.1
20260905152258 72 156 3.5 5.2 0.00 0.00 0.00 65 983.0
20260905151758 72 128 3.5 6.1 0.00 0.00 0.00 63 983.0
20260905150736 72 80 2.6 4.3 0.00 0.00 0.00 67 983.0
20260905150235 72 152 2.6 5.2 0.00 0.00 0.00 68 983.0
20260905145214 72 155 2.6 5.2 0.00 0.00 0.00 67 983.1
20260905144713 71 133 1.7 4.3 0.00 0.00 0.00 68 983.1
20260905144212 71 109 3.5 6.1 0.00 0.00 0.00 68 983.0
20260905143712 71 117 3.5 4.3 0.00 0.00 0.00 69 983.0
20260905143212 71 147 2.6 5.2 0.00 0.00 0.00 70 983.0
20260905142711 70 100 2.6 4.3 0.00 0.00 0.00 70 983.1
20260905142210 70 108 2.6 4.3 0.00 0.00 0.00 69 983.0
20260905141710 70 98 3.5 5.2 0.00 0.00 0.00 69 983.0
20260905141210 70 58 2.6 4.3 0.00 0.00 0.00 72 983.0
20260905140710 70 139 4.3 7.0 0.00 0.00 0.00 71 983.1
20260905140209 70 87 2.6 3.5 0.00 0.00 0.00 72 983.1
20260905135709 69 153 1.7 2.6 0.00 0.00 0.00 75 983.1
20260905134648 68 73 3.5 6.1 0.00 0.00 0.00 78 983.1
20260905134147 68 117 4.3 7.0 0.00 0.00 0.00 79 983.0
20260905133647 68 106 2.6 5.2 0.00 0.00 0.00 80 983.1
20260905132626 67 121 3.5 7.0 0.00 0.00 0.00 81 983.2
20260905132125 67 88 4.3 6.1 0.00 0.00 0.00 83 983.2
20260905131625 67 109 2.6 4.3 0.00 0.00 0.00 83 983.3
20260905131125 66 77 3.5 6.1 0.00 0.00 0.00 84 983.3
20260905130625 66 91 3.5 5.2 0.00 0.00 0.00 84 983.3
20260905130124 66 66 2.6 4.3 0.00 0.00 0.00 85 983.4
20260905125624 66 139 1.7 3.5 0.00 0.00 0.00 85 983.4
20260905125124 66 109 1.7 3.5 0.00 0.00 0.00 85 983.4
20260905124624 65 109 2.6 3.5 0.00 0.00 0.00 86 983.5
20260905124124 65 134 2.6 3.5 0.00 0.00 0.00 87 983.4
20260905123624 65 117 2.6 3.5 0.00 0.00 0.00 87 983.5
20260905122602 65 145 1.7 2.6 0.00 0.00 0.00 86 983.3
20260905122102 64 102 1.7 3.5 0.00 0.00 0.00 88 983.4
20260905121602 64 127 3.5 4.3 0.00 0.00 0.00 88 983.4
20260905120540 63 92 0.9 1.7 0.00 0.00 0.00 89 983.5
20260905120040 63 101 1.7 3.5 0.00 0.00 0.00 89 983.5
20260905115540 63 64 1.7 2.6 0.00 0.00 0.00 90 983.5
20260905115039 62 132 0.9 0.9 0.00 0.00 0.00 91 983.6
20260905114539 62 65 0.9 2.6 0.00 0.00 0.00 92 983.6
20260905114039 61 141 0.9 1.7 0.00 0.00 0.00 94 983.5
20260905113539 60 0 0.0 0.0 0.00 0.00 0.00 96 983.5
20260905113039 60 54 0.9 1.7 0.00 0.00 0.00 96 983.4
20260905112539 59 0 0.0 0.0 0.00 0.00 0.00 97 983.4
20260905112038 59 0 0.0 0.0 0.00 0.00 0.00 97 983.4
20260905111538 59 0 0.0 0.0 0.00 0.00 0.00 97 983.4
20260905111038 59 217 0.0 0.9 0.00 0.00 0.00 97 983.3
20260905110537 60 0 0.0 0.0 0.00 0.00 0.00 96 983.2
20260905110037 60 0 0.0 0.0 0.00 0.00 0.00 96 983.1
20260905105536 60 0 0.0 0.0 0.00 0.00 0.00 96 983.1
20260905105035 60 0 0.0 0.0 0.00 0.00 0.00 96 983.0
20260905103453 61 0 0.0 0.0 0.00 0.00 0.00 95 982.8
20260905102953 61 0 0.0 0.0 0.00 0.00 0.00 95 982.6
20260905102452 61 94 1.7 2.6 0.00 0.00 0.00 94 982.5
20260905101952 62 166 1.7 2.6 0.00 0.00 0.00 94 982.5
20260905101452 62 137 0.9 0.9 0.00 0.00 0.00 94 982.5
20260905100952 62 87 1.7 3.5 0.00 0.00 0.00 93 982.5
20260905100452 62 75 2.6 5.2 0.00 0.00 0.00 93 982.4
20260905095951 62 149 0.9 1.7 0.00 0.00 0.00 93 982.5